This is the latest recevied weather packets stored in our database for station/object OE3UKW. If no packets are shown the sender has not sent any weather packets the latest 10 day(s).
| Time | Temp. | Humidity | Pressure | Rain* | Wind** | Luminosity | Snow |
|---|---|---|---|---|---|---|---|
| 1776927671 | 12.78° C | 37% | 1023.2 hPa | 0 mm | - | 573 W/m² | - |
| 1776927071 | 12.22° C | 39% | 1023.1 hPa | 0 mm | - | 309 W/m² | - |
| 1776926471 | 11.67° C | 42% | 1023.2 hPa | 0 mm | - | 470 W/m² | - |
| 1776925871 | 11.11° C | 43% | 1023.2 hPa | 0 mm | - | 320 W/m² | - |
| 1776925271 | 10.56° C | 45% | 1023.1 hPa | 0 mm | - | 287 W/m² | - |
| 1776924671 | 10° C | 44% | 1023.1 hPa | 0 mm | - | 185 W/m² | - |
| 1776924071 | 9.44° C | 46% | 1023 hPa | 0 mm | - | 226 W/m² | - |
| 1776923471 | 8.89° C | 47% | 1023.1 hPa | 0 mm | - | 145 W/m² | - |
| 1776922871 | 8.33° C | 49% | 1023 hPa | 0 mm | - | 132 W/m² | - |
| 1776922270 | 7.78° C | 49% | 1022.9 hPa | 0 mm | - | 105 W/m² | - |
| 1776921671 | 7.78° C | 50% | 1023 hPa | 0 mm | - | 97 W/m² | - |
| 1776921071 | 7.22° C | 50% | 1022.9 hPa | 0 mm | - | 68 W/m² | - |
| 1776920471 | 7.22° C | 50% | 1022.9 hPa | 0 mm | - | 39 W/m² | - |
| 1776919870 | 6.67° C | 51% | 1022.9 hPa | 0 mm | - | 31 W/m² | - |
| 1776919270 | 6.67° C | 51% | 1022.9 hPa | 0 mm | - | 30 W/m² | - |
| 1776918670 | 6.67° C | 51% | 1022.8 hPa | 0 mm | - | 26 W/m² | - |
| 1776918070 | 6.67° C | 51% | 1022.9 hPa | 0 mm | - | 18 W/m² | - |
| 1776917472 | 6.67° C | 51% | 1022.7 hPa | 0 mm | - | 12 W/m² | - |
| 1776916870 | 6.67° C | 51% | 1022.8 hPa | 0 mm | - | 7 W/m² | - |
| 1776916270 | 6.67° C | 51% | 1022.9 hPa | 0 mm | - | 0 W/m² | - |
| 1776915670 | 6.67° C | 50% | 1022.9 hPa | 0 mm | - | 0 W/m² | - |
| 1776915070 | 6.67° C | 50% | 1022.9 hPa | 0 mm | - | 0 W/m² | - |
| 1776914470 | 6.67° C | 50% | 1022.9 hPa | 0 mm | - | 0 W/m² | - |
| 1776913870 | 6.67° C | 50% | 1022.8 hPa | 0 mm | - | 0 W/m² | - |
| 1776913270 | 6.67° C | 50% | 1022.8 hPa | 0 mm | - | 0 W/m² | - |
* Rain latest hour (hover to see other rain measurements)
** Current wind speed in m/s (hover to see current wind gust speed)